Home > Weather > Palma > Past weeks

Flag for Spain Weather for the Past 2 Weeks in Palma, Majorca, Spain

Now
45 °F

Passing clouds.


Feels Like: 43 °F
Forecast: 54 / 59 °F
Wind: 3 mph from East

Location: Palma De Mallorca / Son San Juan

Current Time: Feb 6, 2016 at 5:24:54 AM

Latest Report: Feb 6, 2016 at 5:00 AM


Visibility: N/A

Pressure: 30.27 "Hg

Humidity: 93%

Dew point: 43 °F

Location of PalmaLocation

Historic Weather in Palma — Graph

°F

Palma Temperature Yesterday

Maximum temperature yesterday: 63 °F (at 1:30 PM)
Minimum temperature yesterday: 36 °F (at 7:30 AM)
Average temperature yesterday: 49 °F

High & Low Weather Summary for the Past Weeks

 TemperatureHumidityPressure
High72 °F (Feb 1, 1:30 PM)100% (Jan 22, 4:00 AM)30.60 "Hg (Jan 22, 4:00 AM)
Low36 °F (Jan 22, 8:00 AM)46% (Feb 1, 12:30 PM)30.24 "Hg (Feb 3, 5:00 AM)
Average53 °F86%30.43 "Hg
* Reported Jan 22 4:00 AM — Feb 6 4:30 AM, Palma, Weather by CustomWeather, © 2016

Note: Actual official high and low records may vary slightly from our data, if they occured in-between our weather recording intervals... More about our weather records

Advertising

Palma Weather History for the Previous 24 Hours

 ConditionsComfort  
Time TempWeatherWind HumidityBarometerVisibility
4:30 AM
Sat, Feb 6
45 °FPassing clouds.2 mph93%30.27 "HgN/A
4:00 AM43 °FPassing clouds.2 mph100%30.27 "HgN/A
3:00 AM41 °FPassing clouds.1 mph100%30.30 "HgN/A
2:30 AM41 °FPassing clouds.1 mph93%30.30 "HgN/A
1:30 AM41 °FPassing clouds.1 mph100%30.30 "HgN/A
1:00 AM43 °FPassing clouds.1 mph93%30.30 "HgN/A
12:30 AM43 °FPassing clouds.2 mph93%30.30 "HgN/A
12:00 AM43 °FPassing clouds.2 mph93%30.30 "HgN/A
11:30 PM
Fri, Feb 5
45 °FPassing clouds.2 mph93%30.30 "HgN/A
11:00 PM45 °FPassing clouds.2 mph93%30.33 "HgN/A
10:30 PM45 °FPassing clouds.2 mph93%30.33 "HgN/A
10:00 PM45 °FPassing clouds.No wind93%30.33 "HgN/A
9:30 PM46 °FPassing clouds.No wind93%30.33 "HgN/A
9:00 PM48 °FPassing clouds.2 mph87%30.33 "HgN/A
8:30 PM50 °FPassing clouds.2 mph82%30.33 "HgN/A
8:00 PM50 °FPassing clouds.No wind82%30.33 "HgN/A
7:30 PM50 °FPassing clouds.3 mph82%30.33 "HgN/A
7:00 PM55 °FPassing clouds.2 mph77%30.33 "HgN/A
6:30 PM55 °FPassing clouds.3 mph77%30.33 "HgN/A
6:00 PM57 °FPassing clouds.7 mph72%30.33 "HgN/A
5:30 PM57 °FPassing clouds.8 mph72%30.33 "HgN/A
5:00 PM59 °FPassing clouds.10 mph68%30.33 "HgN/A
4:30 PM59 °FPassing clouds.12 mph68%30.33 "HgN/A
4:00 PM59 °FPassing clouds.14 mph68%30.30 "HgN/A
3:30 PM61 °FPassing clouds.15 mph63%30.33 "HgN/A
3:00 PM61 °FPassing clouds.15 mph63%30.33 "HgN/A
2:30 PM61 °FPassing clouds.15 mph68%30.33 "HgN/A
2:00 PM61 °FPassing clouds.14 mph63%30.33 "HgN/A
1:30 PM63 °FPassing clouds.15 mph59%30.36 "HgN/A
1:00 PM61 °FPassing clouds.14 mph63%30.36 "HgN/A
12:30 PM61 °FPassing clouds.14 mph63%30.39 "HgN/A
12:00 PM61 °FPassing clouds.10 mph63%30.39 "HgN/A
11:30 AM59 °FPassing clouds.7 mph72%30.42 "HgN/A
11:00 AM57 °FPassing clouds.5 mph72%30.42 "HgN/A
10:30 AM55 °FPassing clouds.No wind77%30.42 "HgN/A
10:00 AM52 °FPassing clouds.No wind82%30.42 "HgN/A
9:30 AM45 °FPassing clouds.No wind93%30.42 "HgN/A
9:00 AM41 °FPassing clouds.No wind100%30.42 "HgN/A
8:30 AM37 °FPassing clouds.No wind100%30.42 "HgN/A
8:00 AM37 °FSunny.1 mph100%30.42 "Hg10 mi
7:30 AM36 °FPassing clouds.5 mph100%30.42 "HgN/A
7:00 AM37 °FPassing clouds.No wind100%30.42 "HgN/A
6:30 AM37 °FPassing clouds.1 mph93%30.42 "HgN/A
6:00 AM37 °FPassing clouds.1 mph93%30.42 "HgN/A
5:00 AM37 °FPassing clouds.No wind93%30.45 "HgN/A
Weather by CustomWeather, © 2016

See weather overviewHow to use our weather pages